Time,TemperatureF,DewpointF,PressureIn,WindDirection,WindDirectionDegrees,WindSpeedMPH,WindSpeedGustMPH,Humidity,HourlyPrecipIn,Conditions,Clouds,dailyrainin,SolarRadiationWatts/m^2,SoftwareType,DateUTC
2013-09-22 00:11:00,48.5,34.0,29.43,SSE,157,1.0,6.0,57,0.00,,,0.00,0,weatherlink.com 1.10,2013-09-22 06:11:00,
2013-09-22 00:26:00,48.0,34.0,29.42,SSE,154,3.0,4.0,58,0.00,,,0.00,0,weatherlink.com 1.10,2013-09-22 06:26:00,
2013-09-22 00:41:00,47.4,34.0,29.42,South,173,0.0,6.0,61,0.00,,,0.00,0,weatherlink.com 1.10,2013-09-22 06:41:00,
2013-09-22 00:56:00,47.4,34.0,29.42,WNW,293,5.0,7.0,61,0.00,,,0.00,0,weatherlink.com 1.10,2013-09-22 06:56:00,
2013-09-22 01:11:00,48.0,35.0,29.41,WSW,250,2.0,8.0,60,0.00,,,0.00,0,weatherlink.com 1.10,2013-09-22 07:11:00,
2013-09-22 01:26:00,48.1,34.0,29.41,SSW,192,1.0,6.0,59,0.00,,,0.00,0,weatherlink.com 1.10,2013-09-22 07:26:00,
2013-09-22 01:41:00,48.1,34.0,29.41,South,190,0.0,8.0,59,0.00,,,0.00,0,weatherlink.com 1.10,2013-09-22 07:41:00,
2013-09-22 01:56:00,47.9,34.0,29.41,SW,223,1.0,6.0,60,0.00,,,0.00,0,weatherlink.com 1.10,2013-09-22 07:56:00,
2013-09-22 02:11:00,47.4,34.0,29.41,SSE,156,5.0,6.0,61,0.00,,,0.00,0,weatherlink.com 1.10,2013-09-22 08:11:00,
2013-09-22 02:26:00,46.9,34.0,29.41,SSE,160,1.0,5.0,62,0.00,,,0.00,0,weatherlink.com 1.10,2013-09-22 08:26:00,
2013-09-22 02:41:00,47.0,34.0,29.41,South,169,2.0,7.0,62,0.00,,,0.00,0,weatherlink.com 1.10,2013-09-22 08:41:00,
2013-09-22 02:56:00,46.6,34.0,29.39,SE,140,2.0,6.0,63,0.00,,,0.00,0,weatherlink.com 1.10,2013-09-22 08:56:00,
2013-09-22 03:11:00,46.3,35.0,29.39,SSE,166,4.0,5.0,64,0.00,,,0.00,0,weatherlink.com 1.10,2013-09-22 09:11:00,
2013-09-22 03:27:00,45.8,35.0,29.39,SSE,161,0.0,5.0,65,0.00,,,0.00,0,weatherlink.com 1.10,2013-09-22 09:27:00,
2013-09-22 03:42:00,46.2,35.0,29.39,SSE,161,3.0,5.0,64,0.00,,,0.00,0,weatherlink.com 1.10,2013-09-22 09:42:00,
2013-09-22 03:57:00,46.1,34.0,29.38,SSE,155,2.0,5.0,64,0.00,,,0.00,0,weatherlink.com 1.10,2013-09-22 09:57:00,
2013-09-22 04:12:00,46.3,35.0,29.39,SSE,159,1.0,6.0,64,0.00,,,0.00,0,weatherlink.com 1.10,2013-09-22 10:12:00,
2013-09-22 04:27:00,46.1,35.0,29.38,SSE,156,3.0,5.0,65,0.00,,,0.00,0,weatherlink.com 1.10,2013-09-22 10:27:00,
2013-09-22 04:42:00,45.9,35.0,29.39,South,187,0.0,3.0,65,0.00,,,0.00,0,weatherlink.com 1.10,2013-09-22 10:42:00,
2013-09-22 05:12:00,45.8,35.0,29.38,SSE,166,1.0,5.0,66,0.00,,,0.00,0,weatherlink.com 1.10,2013-09-22 11:12:00,
2013-09-22 05:27:00,46.4,36.0,29.38,SSW,198,0.0,4.0,66,0.00,,,0.00,0,weatherlink.com 1.10,2013-09-22 11:27:00,
2013-09-22 05:42:00,46.5,36.0,29.38,SE,141,0.0,5.0,66,0.00,,,0.00,0,weatherlink.com 1.10,2013-09-22 11:42:00,
2013-09-22 05:57:00,46.4,36.0,29.38,SSE,163,0.0,4.0,66,0.00,,,0.00,0,weatherlink.com 1.10,2013-09-22 11:57:00,
2013-09-22 06:12:00,46.5,36.0,29.38,SE,140,2.0,5.0,67,0.00,,,0.00,0,weatherlink.com 1.10,2013-09-22 12:12:00,
2013-09-22 06:27:00,46.6,36.0,29.38,SE,145,3.0,4.0,66,0.00,,,0.00,0,weatherlink.com 1.10,2013-09-22 12:27:00,
2013-09-22 06:42:00,46.1,36.0,29.37,SE,133,2.0,6.0,67,0.00,,,0.00,0,weatherlink.com 1.10,2013-09-22 12:42:00,
2013-09-22 06:57:00,45.4,36.0,29.37,SSE,149,1.0,5.0,69,0.00,,,0.00,5,weatherlink.com 1.10,2013-09-22 12:57:00,
2013-09-22 07:12:00,45.3,36.0,29.38,SE,133,0.0,4.0,71,0.00,,,0.00,19,weatherlink.com 1.10,2013-09-22 13:12:00,
2013-09-22 07:27:00,46.4,36.0,29.37,SE,144,4.0,6.0,68,0.00,,,0.00,14,weatherlink.com 1.10,2013-09-22 13:27:00,
2013-09-22 07:42:00,46.1,36.0,29.37,SE,145,4.0,8.0,68,0.00,,,0.00,21,weatherlink.com 1.10,2013-09-22 13:42:00,
2013-09-22 07:57:00,47.5,37.0,29.37,SSE,148,7.0,8.0,68,0.00,,,0.00,130,weatherlink.com 1.10,2013-09-22 13:57:00,
2013-09-22 08:12:00,50.0,38.0,29.36,ESE,121,5.0,10.0,63,0.00,,,0.00,197,weatherlink.com 1.10,2013-09-22 14:12:00,
2013-09-22 08:27:00,50.2,38.0,29.36,ESE,123,4.0,10.0,63,0.00,,,0.00,169,weatherlink.com 1.10,2013-09-22 14:27:00,
2013-09-22 08:42:00,51.4,39.0,29.36,South,187,4.0,7.0,63,0.00,,,0.00,339,weatherlink.com 1.10,2013-09-22 14:42:00,
2013-09-22 08:57:00,52.8,39.0,29.36,South,184,2.0,10.0,59,0.00,,,0.00,186,weatherlink.com 1.10,2013-09-22 14:57:00,
2013-09-22 09:12:00,51.3,39.0,29.36,SE,138,6.0,10.0,63,0.00,,,0.00,278,weatherlink.com 1.10,2013-09-22 15:12:00,
2013-09-22 09:27:00,52.2,39.0,29.35,West,261,2.0,8.0,62,0.00,,,0.00,499,weatherlink.com 1.10,2013-09-22 15:27:00,
2013-09-22 09:42:00,52.6,39.0,29.35,South,170,3.0,10.0,60,0.00,,,0.00,155,weatherlink.com 1.10,2013-09-22 15:42:00,
2013-09-22 09:57:00,52.7,39.0,29.35,SSE,156,1.0,6.0,61,0.00,,,0.00,288,weatherlink.com 1.10,2013-09-22 15:57:00,
2013-09-22 10:12:00,52.8,40.0,29.34,SSE,165,0.0,5.0,62,0.00,,,0.00,165,weatherlink.com 1.10,2013-09-22 16:12:00,
2013-09-22 10:27:00,52.2,40.0,29.34,WNW,284,2.0,6.0,63,0.00,,,0.00,153,weatherlink.com 1.10,2013-09-22 16:27:00,
2013-09-22 10:42:00,51.8,39.0,29.33,South,171,2.0,5.0,63,0.00,,,0.00,244,weatherlink.com 1.10,2013-09-22 16:42:00,
2013-09-22 10:57:00,52.2,39.0,29.32,South,175,2.0,8.0,62,0.00,,,0.00,257,weatherlink.com 1.10,2013-09-22 16:57:00,
2013-09-22 11:12:00,52.6,40.0,29.32,WNW,296,3.0,9.0,62,0.00,,,0.00,232,weatherlink.com 1.10,2013-09-22 17:12:00,
2013-09-22 11:27:00,52.1,40.0,29.32,South,188,8.0,11.0,63,0.00,,,0.00,209,weatherlink.com 1.10,2013-09-22 17:27:00,
2013-09-22 11:42:00,51.6,38.0,29.32,WNW,298,3.0,10.0,60,0.00,,,0.00,285,weatherlink.com 1.10,2013-09-22 17:42:00,
2013-09-22 11:57:00,49.6,37.0,29.33,SSW,200,7.0,10.0,63,0.00,,,0.00,135,weatherlink.com 1.10,2013-09-22 17:57:00,
2013-09-22 12:12:00,48.7,39.0,29.32,South,180,3.0,7.0,68,0.00,,,0.00,146,weatherlink.com 1.10,2013-09-22 18:12:00,
2013-09-22 12:27:00,48.2,38.0,29.31,South,184,5.0,11.0,69,0.00,,,0.00,174,weatherlink.com 1.10,2013-09-22 18:27:00,
2013-09-22 12:42:00,49.0,38.0,29.31,SE,134,10.0,16.0,67,0.00,,,0.00,299,weatherlink.com 1.10,2013-09-22 18:42:00,
2013-09-22 12:57:00,51.1,39.0,29.29,SE,132,9.0,19.0,64,0.00,,,0.00,406,weatherlink.com 1.10,2013-09-22 18:57:00,
2013-09-22 13:13:00,52.2,38.0,29.29,East,83,7.0,16.0,60,0.00,,,0.00,315,weatherlink.com 1.10,2013-09-22 19:13:00,
2013-09-22 13:28:00,54.0,38.0,29.29,South,191,8.0,13.0,56,0.00,,,0.00,408,weatherlink.com 1.10,2013-09-22 19:28:00,
2013-09-22 13:43:00,54.4,39.0,29.27,South,171,4.0,14.0,57,0.00,,,0.00,763,weatherlink.com 1.10,2013-09-22 19:43:00,
2013-09-22 13:58:00,53.9,39.0,29.27,SE,132,11.0,21.0,57,0.00,,,0.00,223,weatherlink.com 1.10,2013-09-22 19:58:00,
2013-09-22 14:13:00,50.4,40.0,29.28,SSE,161,8.0,14.0,68,0.00,,,0.00,130,weatherlink.com 1.10,2013-09-22 20:13:00,
2013-09-22 14:28:00,49.2,40.0,29.25,SSE,155,4.0,11.0,70,0.00,,,0.00,244,weatherlink.com 1.10,2013-09-22 20:28:00,
2013-09-22 14:43:00,49.8,39.0,29.25,SSE,157,14.0,17.0,66,0.00,,,0.00,172,weatherlink.com 1.10,2013-09-22 20:43:00,
2013-09-22 14:58:00,49.4,38.0,29.24,SSE,155,7.0,13.0,65,0.00,,,0.00,165,weatherlink.com 1.10,2013-09-22 20:58:00,
2013-09-22 15:13:00,49.4,38.0,29.24,SSE,167,4.0,12.0,66,0.00,,,0.00,100,weatherlink.com 1.10,2013-09-22 21:13:00,
2013-09-22 15:28:00,49.1,39.0,29.24,SSW,207,5.0,11.0,69,0.01,,,0.01,54,weatherlink.com 1.10,2013-09-22 21:28:00,
2013-09-22 15:43:00,47.9,38.0,29.24,SSW,196,4.0,14.0,68,0.01,,,0.01,39,weatherlink.com 1.10,2013-09-22 21:43:00,
2013-09-22 15:58:00,45.8,39.0,29.26,WNW,294,6.0,10.0,77,0.03,,,0.03,21,weatherlink.com 1.10,2013-09-22 21:58:00,
2013-09-22 16:13:00,43.5,39.0,29.28,WSW,249,1.0,18.0,85,0.07,,,0.07,9,weatherlink.com 1.10,2013-09-22 22:13:00,
2013-09-22 16:28:00,41.8,38.0,29.29,West,274,2.0,6.0,87,0.12,,,0.13,5,weatherlink.com 1.10,2013-09-22 22:28:00,
2013-09-22 16:43:00,40.9,38.0,29.29,SSE,163,2.0,5.0,90,0.21,,,0.22,5,weatherlink.com 1.10,2013-09-22 22:43:00,
2013-09-22 16:58:00,40.6,39.0,29.28,SSE,161,3.0,3.0,92,0.26,,,0.29,12,weatherlink.com 1.10,2013-09-22 22:58:00,
2013-09-22 17:13:00,40.5,38.0,29.28,South,176,5.0,6.0,92,0.26,,,0.33,12,weatherlink.com 1.10,2013-09-22 23:13:00,
2013-09-22 17:28:00,40.2,38.0,29.27,SE,143,0.0,6.0,92,0.24,,,0.37,12,weatherlink.com 1.10,2013-09-22 23:28:00,
2013-09-22 17:43:00,40.2,38.0,29.28,South,184,4.0,5.0,92,0.20,,,0.42,32,weatherlink.com 1.10,2013-09-22 23:43:00,
2013-09-22 17:58:00,40.3,38.0,29.28,South,190,0.0,3.0,92,0.14,,,0.43,26,weatherlink.com 1.10,2013-09-22 23:58:00,
2013-09-22 18:13:00,40.3,38.0,29.26,South,181,0.0,2.0,92,0.11,,,0.44,18,weatherlink.com 1.10,2013-09-23 00:13:00,
2013-09-22 18:28:00,40.3,39.0,29.26,SSW,209,0.0,2.0,93,0.07,,,0.45,14,weatherlink.com 1.10,2013-09-23 00:28:00,
2013-09-22 18:43:00,40.1,38.0,29.25,SSW,197,0.0,2.0,92,0.03,,,0.45,9,weatherlink.com 1.10,2013-09-23 00:43:00,
2013-09-22 18:58:00,39.6,37.0,29.23,SW,234,0.0,3.0,91,0.02,,,0.45,0,weatherlink.com 1.10,2013-09-23 00:58:00,
2013-09-22 19:13:00,39.4,37.0,29.23,SW,234,0.0,0.0,92,0.01,,,0.45,0,weatherlink.com 1.10,2013-09-23 01:13:00,
2013-09-22 19:28:00,39.4,38.0,29.21,SSW,206,2.0,2.0,93,0.00,,,0.45,0,weatherlink.com 1.10,2013-09-23 01:28:00,
2013-09-22 19:43:00,39.3,38.0,29.19,ESE,121,3.0,6.0,93,0.00,,,0.45,0,weatherlink.com 1.10,2013-09-23 01:43:00,
2013-09-22 19:58:00,39.7,38.0,29.20,SE,146,0.0,5.0,94,0.00,,,0.45,0,weatherlink.com 1.10,2013-09-23 01:58:00,
2013-09-22 20:13:00,39.7,38.0,29.19,WSW,257,2.0,3.0,93,0.00,,,0.45,0,weatherlink.com 1.10,2013-09-23 02:13:00,
2013-09-22 20:28:00,39.6,38.0,29.21,WNW,282,0.0,1.0,94,0.00,,,0.45,0,weatherlink.com 1.10,2013-09-23 02:28:00,
2013-09-22 20:43:00,39.5,38.0,29.22,WNW,282,0.0,0.0,94,0.01,,,0.46,0,weatherlink.com 1.10,2013-09-23 02:43:00,
2013-09-22 20:58:00,39.3,38.0,29.23,WNW,282,0.0,1.0,94,0.02,,,0.47,0,weatherlink.com 1.10,2013-09-23 02:58:00,
2013-09-22 21:13:00,39.0,38.0,29.24,North,355,2.0,11.0,94,0.04,,,0.49,0,weatherlink.com 1.10,2013-09-23 03:13:00,
2013-09-22 21:29:00,37.9,36.0,29.24,West,280,0.0,8.0,93,0.07,,,0.52,0,weatherlink.com 1.10,2013-09-23 03:29:00,
2013-09-22 21:44:00,37.0,35.0,29.25,WSW,239,2.0,10.0,93,0.08,,,0.54,0,weatherlink.com 1.10,2013-09-23 03:44:00,
2013-09-22 21:59:00,36.4,35.0,29.24,West,274,3.0,7.0,94,0.08,,,0.55,0,weatherlink.com 1.10,2013-09-23 03:59:00,
2013-09-22 22:14:00,36.2,35.0,29.23,West,266,2.0,10.0,94,0.06,,,0.56,0,weatherlink.com 1.10,2013-09-23 04:14:00,
2013-09-22 22:29:00,36.3,35.0,29.23,NW,304,3.0,9.0,94,0.04,,,0.56,0,weatherlink.com 1.10,2013-09-23 04:29:00,
2013-09-22 22:44:00,36.2,35.0,29.22,West,278,1.0,10.0,94,0.02,,,0.56,0,weatherlink.com 1.10,2013-09-23 04:44:00,
2013-09-22 22:59:00,36.1,35.0,29.23,WNW,283,4.0,7.0,95,0.01,,,0.56,0,weatherlink.com 1.10,2013-09-23 04:59:00,
2013-09-22 23:14:00,36.0,35.0,29.24,WSW,249,1.0,16.0,95,0.00,,,0.56,0,weatherlink.com 1.10,2013-09-23 05:14:00,
2013-09-22 23:29:00,36.0,35.0,29.23,West,273,0.0,6.0,95,0.00,,,0.56,0,weatherlink.com 1.10,2013-09-23 05:29:00,
2013-09-22 23:44:00,36.1,35.0,29.21,West,269,2.0,4.0,95,0.00,,,0.56,0,weatherlink.com 1.10,2013-09-23 05:44:00,
2013-09-22 23:59:00,36.1,35.0,29.22,SW,215,5.0,8.0,95,0.00,,,0.56,0,weatherlink.com 1.10,2013-09-23 05:59:00,